Location: Unspecified
(0.0000°N, 0.0000°E)
Time: 07:38:10
(UTC+00:00)

SR - Pass Details

Date: 13 December 2018
Orbit: 584 x 872 km, 66.7° (Epoch: 18 March)

Event Time Altitude Azimuth Distance (km) Brightness Sun altitude
Rises 23:43:56 0° 171° (S) 3,407 - -66.7°
Reaches altitude 10° 23:47:07 10° 154° (SSE) 2,497 - -66.7°
Maximum altitude 23:51:08 19° 110° (ESE) 1,941 - -66.8°
Drops below altitude 10° 23:55:09 10° 66° (ENE) 2,511 - -66.8°
Sets 23:58:20 0° 49° (NE) 3,434 - -66.8°
